Petersburg, AK

3:38 AM AKDT on July 26, 2017 (GMT -0800)
Johnson Petersburg

Weather History for PAPG - October, 2010

Change the Weather History Date:

Sunday, October 17, 2010

  Actual Average Record
Temperature  
Mean Temperature 47 °F -  
Max Temperature 50 °F 45 °F 57 °F (1988)
Min Temperature 44 °F 38 °F 18 °F (1992)
Degree Days  
Heating Degree Days 18    
Moisture  
Dew Point 44 °F    
Average Humidity 87    
Maximum Humidity 100    
Minimum Humidity 82    
Precipitation  
Precipitation 0.00 in - - ()
Sea Level Pressure  
Sea Level Pressure 29.69 in    
Wind  
Wind Speed 5 mph (NNE)    
Max Wind Speed 17 mph    
Max Gust Speed 32 mph    
Visibility 8 miles    
Events      
Averages and records for this station are not official NWS values.
T = Trace of Precipitation, MM = Missing Value Source: NWS Daily Summary

Daily Weather History Graph

Daily Weather History Graph

Search for Another Location

Airport or City:

Trip Planner

Search our weather history database for the weather conditions in past years. The results will help you decide how hot, cold, wet, or windy it might be!

Date:

Astronomy

Oct. 17, 2010 Rise Set
Actual Time 7:29 AM AKDT 5:43 PM AKDT
Civil Twilight 6:50 AM AKDT 6:22 PM AKDT
Nautical Twilight 6:06 AM AKDT 7:06 PM AKDT
Astronomical Twilight 5:22 AM AKDT 7:50 PM AKDT
Moon 3:55 PM AKDT (10/17) 1:30 AM AKDT (10/17)
Length of Visible Light 11h 32m
Length of Day
10h 14m
Waxing Gibbous, 77% of the Moon is Illuminated
Oct 17
Waxing Gibbous
Oct 22
Full
Oct 30
Last Quarter
Nov 5
New
Nov 13
First Quarter

Hourly Weather History & Observations

Time (AKDT) Temp. Windchill Dew Point Humidity Pressure Visibility Wind Dir Wind Speed Gust Speed Precip Events Conditions
12:16 AM 44.6 °F 43.1 °F 42.8 °F 93% 29.86 in 9.0 mi North 3.5 mph - N/A   Overcast
12:36 AM 44.6 °F 42.2 °F 42.8 °F 93% 29.86 in 5.0 mi North 4.6 mph - N/A   Overcast
12:56 AM 44.6 °F - 42.8 °F 93% 29.86 in 6.0 mi Calm Calm - N/A   Overcast
1:16 AM 44.6 °F - 44.6 °F 100% 29.86 in 7.0 mi Calm Calm - N/A   Overcast
1:36 AM 46.4 °F - 44.6 °F 93% 29.85 in 5.0 mi Calm Calm - N/A   Overcast
1:56 AM 44.6 °F 43.1 °F 42.8 °F 93% 29.84 in 7.0 mi North 3.5 mph - N/A   Overcast
2:16 AM 46.4 °F - 44.6 °F 93% 29.84 in 7.0 mi Calm Calm - N/A   Overcast
2:36 AM 46.4 °F 44.3 °F 44.6 °F 93% 29.84 in 10.0 mi North 4.6 mph - N/A   Overcast
2:56 AM 46.4 °F - 44.6 °F 93% 29.83 in 8.0 mi Calm Calm - N/A   Overcast
3:16 AM 46.4 °F 45.2 °F 44.6 °F 93% 29.83 in 10.0 mi NNW 3.5 mph - N/A   Overcast
3:36 AM 46.4 °F - 44.6 °F 93% 29.83 in 10.0 mi Calm Calm - N/A   Mostly Cloudy
3:56 AM 46.4 °F - 44.6 °F 93% 29.82 in 10.0 mi Calm Calm - N/A   Overcast
4:16 AM 46.4 °F - 44.6 °F 93% 29.82 in 9.0 mi Calm Calm - N/A   Overcast
4:36 AM 46.4 °F - 44.6 °F 93% 29.81 in 10.0 mi Calm Calm - N/A   Overcast
4:56 AM 46.4 °F - 44.6 °F 93% 29.81 in 10.0 mi Calm Calm - N/A   Overcast
5:16 AM 46.4 °F 44.3 °F 44.6 °F 93% 29.81 in 10.0 mi NW 4.6 mph - N/A   Overcast
5:36 AM 46.4 °F - 44.6 °F 93% 29.80 in 10.0 mi Calm Calm - N/A   Overcast
5:56 AM 46.4 °F 45.2 °F 44.6 °F 93% 29.79 in 10.0 mi North 3.5 mph - N/A   Overcast
6:16 AM 46.4 °F - 44.6 °F 93% 29.79 in 10.0 mi Calm Calm - N/A   Overcast
6:36 AM 48.2 °F - 44.6 °F 87% 29.78 in 10.0 mi Calm Calm - N/A   Overcast
6:56 AM 46.4 °F - 44.6 °F 93% 29.77 in 10.0 mi Calm Calm - N/A   Mostly Cloudy
7:16 AM 50.0 °F - 44.6 °F 82% 29.76 in 10.0 mi NE 6.9 mph - N/A   Mostly Cloudy
7:36 AM 50.0 °F - 44.6 °F 82% 29.75 in 10.0 mi NE 4.6 mph - N/A   Mostly Cloudy
7:56 AM 50.0 °F - 44.6 °F 82% 29.74 in 10.0 mi NE 6.9 mph - N/A   Overcast
8:16 AM 50.0 °F - 44.6 °F 82% 29.73 in 10.0 mi NE 8.1 mph - N/A   Overcast
8:36 AM 50.0 °F - 44.6 °F 82% 29.72 in 10.0 mi NE 9.2 mph - N/A   Overcast
8:56 AM 50.0 °F - 44.6 °F 82% 29.72 in 5.0 mi NE 9.2 mph 16.1 mph N/A   Overcast
9:16 AM 48.2 °F - 44.6 °F 87% 29.71 in 5.0 mi NE 10.4 mph 19.6 mph N/A   Overcast
9:36 AM 48.2 °F - 44.6 °F 87% 29.71 in 5.0 mi NE 10.4 mph 19.6 mph N/A   Overcast
9:56 AM 48.2 °F - 44.6 °F 87% 29.71 in 4.0 mi NE 6.9 mph - N/A   Overcast
10:16 AM 48.2 °F - 44.6 °F 87% 29.70 in 4.0 mi NE 6.9 mph - N/A   Overcast
10:36 AM 48.2 °F - 44.6 °F 87% 29.69 in 4.0 mi NE 8.1 mph - N/A   Overcast
10:56 AM 48.2 °F - 44.6 °F 87% 29.69 in 7.0 mi NE 11.5 mph 20.7 mph N/A   Overcast
11:16 AM 48.2 °F - 44.6 °F 87% 29.68 in 7.0 mi NE 11.5 mph 18.4 mph N/A   Overcast
11:36 AM 48.2 °F - 44.6 °F 87% 29.67 in 7.0 mi NE 12.7 mph 24.2 mph N/A   Overcast
11:56 AM 48.2 °F - 44.6 °F 87% 29.66 in 7.0 mi NE 11.5 mph 23.0 mph N/A   Overcast
12:16 PM 48.2 °F - 44.6 °F 87% 29.65 in 7.0 mi NE 10.4 mph 18.4 mph N/A   Overcast
12:36 PM 48.2 °F - 44.6 °F 87% 29.64 in 7.0 mi NE 10.4 mph - N/A   Overcast
12:56 PM 48.2 °F - 42.8 °F 82% 29.63 in 10.0 mi NNE 10.4 mph - N/A   Overcast
1:16 PM 48.2 °F - 44.6 °F 87% 29.62 in 10.0 mi NE 6.9 mph 20.7 mph N/A   Overcast
1:36 PM 48.2 °F - 42.8 °F 82% 29.60 in 10.0 mi NE 11.5 mph 20.7 mph N/A   Overcast
1:56 PM 48.2 °F - 44.6 °F 87% 29.59 in 7.0 mi NE 8.1 mph 26.5 mph N/A   Overcast
2:16 PM 48.2 °F - 42.8 °F 82% 29.57 in 7.0 mi NNE 15.0 mph 28.8 mph N/A   Overcast
2:36 PM 48.2 °F - 42.8 °F 82% 29.57 in 7.0 mi NE 13.8 mph 27.6 mph N/A   Overcast
2:56 PM 48.2 °F - 44.6 °F 87% 29.56 in 7.0 mi NE 16.1 mph 32.2 mph N/A   Overcast
3:16 PM 48.2 °F - 42.8 °F 82% 29.56 in 7.0 mi NE 10.4 mph 24.2 mph N/A   Overcast
3:36 PM 48.2 °F - 42.8 °F 82% 29.55 in 7.0 mi NE 12.7 mph 24.2 mph N/A   Overcast
3:56 PM 48.2 °F - 42.8 °F 82% 29.54 in 7.0 mi NNE 16.1 mph 27.6 mph N/A   Overcast
4:16 PM 48.2 °F - 42.8 °F 82% 29.53 in 7.0 mi NE 13.8 mph 23.0 mph N/A   Overcast
4:36 PM 48.2 °F - 42.8 °F 82% 29.52 in 7.0 mi NNE 15.0 mph 20.7 mph N/A   Overcast
4:56 PM 48.2 °F - 42.8 °F 82% 29.51 in 7.0 mi NE 8.1 mph 26.5 mph N/A   Overcast
5:16 PM 48.2 °F - 42.8 °F 82% 29.50 in 7.0 mi NE 15.0 mph 20.7 mph N/A   Overcast
5:36 PM 48.2 °F - 42.8 °F 82% 29.49 in 7.0 mi NE 12.7 mph 27.6 mph N/A   Overcast
5:56 PM 48.2 °F - 42.8 °F 82% 29.49 in 7.0 mi NE 15.0 mph 25.3 mph N/A   Overcast
6:16 PM 48.2 °F - 42.8 °F 82% 29.48 in 7.0 mi NE 16.1 mph 24.2 mph N/A   Overcast
6:36 PM 48.2 °F - 42.8 °F 82% 29.47 in 7.0 mi NE 13.8 mph 23.0 mph N/A   Overcast
6:56 PM 48.2 °F - 42.8 °F 82% 29.46 in 7.0 mi NE 17.3 mph 26.5 mph N/A   Overcast
7:16 PM 48.2 °F - 42.8 °F 82% 29.46 in 7.0 mi NE 13.8 mph 29.9 mph N/A   Overcast
7:36 PM 48.2 °F - 44.6 °F 87% 29.46 in 7.0 mi NE 11.5 mph 21.9 mph N/A   Overcast
7:56 PM 48.2 °F - 44.6 °F 87% 29.46 in 7.0 mi NNE 12.7 mph 25.3 mph N/A   Overcast
8:16 PM 48.2 °F - 42.8 °F 82% 29.46 in 7.0 mi NE 16.1 mph 26.5 mph N/A   Overcast
8:36 PM 48.2 °F - 44.6 °F 87% 29.46 in 7.0 mi NNE 10.4 mph 20.7 mph N/A   Overcast
8:56 PM 48.2 °F - 44.6 °F 87% 29.47 in 7.0 mi NNE 6.9 mph - N/A   Overcast
9:16 PM 48.2 °F - 44.6 °F 87% 29.47 in 7.0 mi Calm Calm - N/A   Overcast
9:36 PM 48.2 °F - 44.6 °F 87% 29.48 in 7.0 mi Calm Calm - N/A   Overcast
9:56 PM 48.2 °F - 44.6 °F 87% 29.48 in 5.0 mi NE 5.8 mph - N/A   Overcast
10:16 PM 48.2 °F - 44.6 °F 87% 29.49 in 4.0 mi Calm Calm - N/A   Overcast
10:36 PM 48.2 °F - 46.4 °F 93% 29.49 in 3.0 mi Calm Calm - N/A   Overcast
10:56 PM 48.2 °F - 46.4 °F 93% 29.50 in 4.0 mi Calm Calm - N/A   Overcast
11:16 PM 48.2 °F - 46.4 °F 93% 29.50 in 5.0 mi NNE 5.8 mph - N/A   Overcast
11:36 PM 48.2 °F - 46.4 °F 93% 29.50 in 9.0 mi Calm Calm - N/A   Overcast
11:56 PM 48.2 °F - 46.4 °F 93% 29.50 in 3.0 mi NNE 6.9 mph - N/A   Overcast